DW3543 Vernouillet FR current weather conditions

sailwx.info

Wind from 047 at 2 knots gusting 10

Air temperature 20.6° C
Dewpoint 16.8° C

Last reported at 2019-Jun-27 07:01 UTC.
Time now 2019-Jun-27 08:06 UTC

Location: N 48°57' E 001°58'.
View on Google Maps.

See reports from other nearby stations

  
Tides and Currents Weather Stations Pressure Air Temp Water Temp Dewpoint Dewpoint Depression Visibility Wind Speed Wind Dir Waves Ship Positions
date/time (UTC)wind fromknots sea level pressurealtimeterstation pressurevisibilityair tempwater tempwave heightnotes
2019-Jun-27 07:01 047 2 gusting 10 20.6
2019-Jun-27 06:46 026 4 gusting 9 20.0
2019-Jun-27 06:30 056 3 gusting 8 19.4
2019-Jun-27 06:17 030 2 gusting 11 19.4
2019-Jun-27 06:01 043 2 gusting 8 18.9
2019-Jun-27 05:45 055 2 gusting 9 18.3
2019-Jun-27 05:30 025 4 gusting 8 18.3
2019-Jun-27 05:15 062 3 gusting 9 17.8
2019-Jun-27 05:00 059 2 gusting 9 17.8
2019-Jun-27 04:00 049 3 gusting 10 17.8
2019-Jun-27 03:45 113 4 gusting 8 18.3
2019-Jun-27 03:31 094 4 gusting 9 18.3
2019-Jun-27 03:16 121 3 gusting 10 18.3
2019-Jun-27 03:01 074 4 gusting 9 18.3
2019-Jun-27 02:46 043 6 gusting 11 18.9
2019-Jun-27 02:31 052 5 gusting 9 18.9
2019-Jun-27 02:16 069 3 gusting 10 18.9
2019-Jun-27 02:02 059 2 gusting 6 18.9
2019-Jun-27 01:46 080 2 gusting 7 19.4
2019-Jun-27 01:31 063 2 gusting 7 19.4
2019-Jun-27 01:16 044 3 gusting 9 19.4
2019-Jun-27 01:01 051 3 gusting 10 20.0
2019-Jun-27 00:45 070 3 gusting 13 20.0
2019-Jun-27 00:31 067 3 gusting 10 20.0
2019-Jun-27 00:16 028 5 gusting 10 20.0
2019-Jun-27 00:00 084 6 gusting 12 20.6
2019-Jun-26 23:45 111 5 gusting 9 20.6
2019-Jun-26 23:30 040 4 gusting 11 20.6
2019-Jun-26 23:16 126 5 gusting 11 21.1
2019-Jun-26 23:00 063 4 gusting 13 21.1
2019-Jun-26 12:00 062 5 gusting 14 29.4
2019-Jun-26 11:45 034 6 gusting 15 29.4
2019-Jun-26 11:30 041 6 gusting 13 29.4
2019-Jun-26 11:15 072 3 gusting 12 28.9
2019-Jun-26 11:00 088 5 gusting 11 28.9
2019-Jun-26 10:45 092 5 gusting 11 28.9
2019-Jun-26 10:33 062 4 gusting 10 27.8
2019-Jun-26 10:16 031 4 gusting 11 27.8
2019-Jun-26 10:02 053 2 gusting 9 27.8
2019-Jun-26 09:47 029 2 gusting 7 27.2
2019-Jun-26 09:32 030 1 gusting 7 27.2
2019-Jun-26 09:17 060 2 gusting 9 26.1
2019-Jun-26 09:02 096 4 gusting 12 26.1
2019-Jun-26 08:46 092 5 gusting 9 25.6
2019-Jun-26 08:31 051 5 gusting 10 25.0
2019-Jun-26 08:16 022 4 gusting 11 24.4
2019-Jun-26 08:01 075 4 gusting 7 23.9
2019-Jun-26 05:01 054 1 gusting 7 20.0
2019-Jun-26 04:46 113 1 gusting 7 19.4
2019-Jun-26 04:31 138 3 gusting 7 19.4
2019-Jun-26 04:15 090 2 gusting 5 19.4
2019-Jun-26 04:01 117 1 gusting 7 19.4
2019-Jun-26 03:45 110 0 gusting 5 19.4
2019-Jun-26 03:31 129 1 gusting 5 19.4
2019-Jun-26 03:15 143 2 gusting 6 19.4
2019-Jun-26 03:00 041 2 gusting 7 19.4
2019-Jun-26 02:45 085 0 gusting 6 19.4
2019-Jun-26 02:30 065 0 gusting 3 19.4
2019-Jun-26 02:16 054 0 gusting 3 19.4
2019-Jun-26 02:00 043 19.4
2019-Jun-26 01:45 063 1 gusting 4 20.0
2019-Jun-26 01:30 112 0 gusting 3 20.0
2019-Jun-26 01:15 060 0 gusting 5 20.0
2019-Jun-26 01:00 071 0 gusting 3 20.0
2019-Jun-26 00:45 096 2 gusting 9 20.6
2019-Jun-26 00:32 026 1 gusting 6 20.6
2019-Jun-26 00:17 076 1 gusting 3 20.6
2019-Jun-26 00:02 071 2 gusting 4 20.6
2019-Jun-25 23:46 071 21.1
2019-Jun-25 23:32 071 0 gusting 3 21.1
2019-Jun-25 23:16 038 0 gusting 3 21.7
2019-Jun-25 23:01 069 21.7
2019-Jun-25 22:46 071 1 gusting 3 21.7
2019-Jun-25 22:31 054 0 gusting 2 22.2
2019-Jun-25 22:16 019 22.2
2019-Jun-25 22:00 033 1 gusting 3 22.8
2019-Jun-25 21:46 028 0 gusting 3 22.8
2019-Jun-25 21:30 031 1 gusting 5 23.3
2019-Jun-25 21:01 028 23.9
2019-Jun-25 20:46 005 0 gusting 2 24.4
2019-Jun-25 20:30 321 24.4
2019-Jun-25 20:15 294 1 gusting 6 25.0
2019-Jun-25 20:00 323 0 gusting 6 25.0
2019-Jun-25 19:45 331 0 gusting 3 25.6
2019-Jun-25 19:31 329 0 gusting 5 26.1
2019-Jun-25 19:15 058 1 gusting 6 26.7
2019-Jun-25 19:00 302 0 gusting 6 27.2
2019-Jun-25 18:45 053 0 gusting 6 27.8
2019-Jun-25 18:30 262 1 gusting 7 28.3
2019-Jun-25 18:15 286 1 gusting 7 28.9
2019-Jun-25 18:00 360 0 gusting 3 30.6
2019-Jun-25 17:45 260 30.0
2019-Jun-25 17:30 263 0 gusting 2 30.6
2019-Jun-25 17:15 301 0 gusting 3 31.1
2019-Jun-25 17:00 344 0 gusting 4 31.1
2019-Jun-25 16:45 296 2 gusting 6 31.1
2019-Jun-25 16:33 295 31.1
2019-Jun-25 16:16 277 0 gusting 6 31.7
2019-Jun-25 16:01 205 0 gusting 3 31.1
2019-Jun-25 15:47 271 2 gusting 6 31.1
2019-Jun-25 15:31 020 0 gusting 6 31.1
2019-Jun-25 15:16 300 3 gusting 6 31.1
2019-Jun-25 09:01 279 2 gusting 6 25.0
2019-Jun-25 08:46 216 0 gusting 5 23.9
2019-Jun-25 08:31 204 1 gusting 3 23.3
2019-Jun-25 08:16 277 0 gusting 4 23.3
2019-Jun-25 08:01 234 1 gusting 3 22.8